| time (UTC) | temp F | wind direction | speed MPH | gust MPH | rain 1hr in | rain 24hr in | rain mn in | humidity % | barometer mb |
| 20260904015128 | 79 | 224 | 0.0 | 0.0 | 0.00 | 0.55 | 0.55 | 80 | 1012.1 |
| 20260904014128 | 79 | 224 | 0.0 | 0.0 | 0.00 | 0.55 | 0.55 | 80 | 1011.9 |
| 20260904011128 | 80 | 224 | 0.0 | 0.0 | 0.00 | 0.55 | 0.55 | 79 | 1012.3 |
| 20260904010128 | 80 | 224 | 0.0 | 1.0 | 0.00 | 0.55 | 0.55 | 78 | 1012.2 |
| 20260904005129 | 80 | 226 | 0.0 | 0.0 | 0.00 | 0.55 | 0.55 | 77 | 1012.0 |
| 20260904004128 | 81 | 226 | 0.0 | 0.0 | 0.00 | 0.55 | 0.55 | 77 | 1011.9 |
| 20260904003129 | 81 | 226 | 0.0 | 0.0 | 0.00 | 0.55 | 0.55 | 76 | 1011.9 |
| 20260904002128 | 81 | 226 | 0.0 | 1.0 | 0.00 | 0.55 | 0.55 | 76 | 1011.6 |
| 20260904001129 | 82 | 226 | 0.0 | 0.0 | 0.00 | 0.55 | 0.55 | 75 | 1011.5 |
| 20260903235129 | 83 | 229 | 0.0 | 0.0 | 0.00 | 0.55 | 0.55 | 73 | 1011.3 |
| 20260903234128 | 83 | 229 | 0.0 | 0.0 | 0.00 | 0.55 | 0.55 | 72 | 1011.5 |
| 20260903233128 | 83 | 229 | 0.0 | 0.0 | 0.00 | 0.55 | 0.55 | 71 | 1011.6 |
| 20260903232128 | 84 | 229 | 0.0 | 1.0 | 0.00 | 0.55 | 0.55 | 71 | 1011.6 |
| 20260903231128 | 84 | 229 | 0.0 | 1.0 | 0.00 | 0.55 | 0.55 | 70 | 1011.5 |
| 20260903225128 | 85 | 274 | 0.0 | 2.0 | 0.00 | 0.55 | 0.55 | 68 | 1011.3 |
| 20260903224128 | 86 | 273 | 0.0 | 2.0 | 0.00 | 0.55 | 0.55 | 67 | 1011.4 |
| 20260903223127 | 86 | 273 | 0.0 | 4.0 | 0.00 | 0.55 | 0.55 | 66 | 1011.1 |
| 20260903222127 | 86 | 261 | 0.0 | 3.0 | 0.00 | 0.55 | 0.55 | 66 | 1011.2 |
| 20260903221129 | 86 | 270 | 0.0 | 2.0 | 0.00 | 0.55 | 0.55 | 66 | 1011.3 |
| 20260903220128 | 86 | 289 | 0.0 | 1.0 | 0.00 | 0.55 | 0.55 | 65 | 1011.1 |
| 20260903215128 | 86 | 288 | 0.0 | 1.0 | 0.00 | 0.55 | 0.55 | 65 | 1010.9 |
| 20260903214127 | 86 | 288 | 0.0 | 6.0 | 0.00 | 0.55 | 0.55 | 63 | 1010.9 |
| 20260903213129 | 86 | 275 | 0.0 | 4.0 | 0.00 | 0.55 | 0.55 | 64 | 1010.7 |
| 20260903211128 | 87 | 235 | 0.0 | 2.0 | 0.00 | 0.55 | 0.55 | 62 | 1010.9 |
| 20260903210127 | 87 | 273 | 0.0 | 7.0 | 0.00 | 0.55 | 0.55 | 61 | 1010.9 |
| 20260903205127 | 87 | 221 | 0.0 | 8.0 | 0.00 | 0.55 | 0.55 | 63 | 1011.0 |
| 20260903204129 | 88 | 214 | 4.0 | 6.0 | 0.00 | 0.55 | 0.55 | 63 | 1011.1 |
| 20260903203127 | 88 | 200 | 3.0 | 10.0 | 0.00 | 0.55 | 0.55 | 62 | 1011.2 |
| 20260903202127 | 88 | 171 | 0.0 | 3.0 | 0.00 | 0.55 | 0.55 | 61 | 1011.2 |
| 20260903200127 | 89 | 286 | 1.0 | 9.0 | 0.00 | 0.55 | 0.55 | 60 | 1011.4 |
| 20260903195127 | 90 | 280 | 0.0 | 5.0 | 0.00 | 0.55 | 0.55 | 59 | 1011.4 |